| time (UTC) | temp F | wind direction | speed MPH | gust MPH | rain 1hr in | rain 24hr in | rain mn in | humidity % | barometer mb |
| 20260506185457 | 59 | 270 | 3.0 | 5.0 | 0.00 | 0.10 | 0.10 | 96 | 1007.3 |
| 20260506184954 | 58 | 140 | 6.0 | 8.0 | 0.00 | 0.10 | 0.10 | 96 | 1007.5 |
| 20260506184452 | 59 | 237 | 1.0 | 2.0 | 0.05 | 0.10 | 0.10 | 96 | 1007.4 |
| 20260506183948 | 58 | 184 | 2.0 | 2.0 | 0.05 | 0.10 | 0.10 | 96 | 1007.4 |
| 20260506183444 | 59 | 255 | 3.0 | 3.0 | 0.07 | 0.09 | 0.09 | 96 | 1007.9 |
| 20260506182941 | 59 | 222 | 1.0 | 2.0 | 0.12 | 0.09 | 0.09 | 95 | 1008.0 |
| 20260506182439 | 59 | 215 | 2.0 | 2.0 | 0.12 | 0.08 | 0.08 | 95 | 1007.9 |
| 20260506181936 | 59 | 215 | 2.0 | 3.0 | 0.07 | 0.07 | 0.07 | 95 | 1007.7 |
| 20260506181433 | 59 | 223 | 1.0 | 1.0 | 0.00 | 0.06 | 0.06 | 94 | 1007.9 |
| 20260506180930 | 59 | 209 | 2.0 | 2.0 | 0.07 | 0.06 | 0.06 | 94 | 1007.9 |
| 20260506180426 | 59 | 216 | 2.0 | 3.0 | 0.07 | 0.06 | 0.06 | 94 | 1007.5 |
| 20260506175918 | 59 | 222 | 3.0 | 5.0 | 0.00 | 0.05 | 0.05 | 94 | 1007.5 |
| 20260506175414 | 59 | 178 | 1.0 | 2.0 | 0.05 | 0.05 | 0.05 | 94 | 1007.6 |
| 20260506174911 | 59 | 132 | 2.0 | 3.0 | 0.05 | 0.05 | 0.05 | 94 | 1007.8 |
| 20260506174409 | 59 | 190 | 1.0 | 1.0 | 0.00 | 0.04 | 0.04 | 93 | 1007.7 |
| 20260506173906 | 59 | 170 | 7.0 | 9.0 | 0.07 | 0.04 | 0.04 | 93 | 1008.1 |
| 20260506173403 | 59 | 161 | 3.0 | 5.0 | 0.07 | 0.04 | 0.04 | 93 | 1008.2 |
| 20260506172859 | 59 | 123 | 1.0 | 1.0 | 0.00 | 0.03 | 0.03 | 93 | 1008.2 |
| 20260506172356 | 59 | 217 | 1.0 | 1.0 | 0.05 | 0.03 | 0.03 | 92 | 1008.4 |
| 20260506171854 | 59 | 243 | 3.0 | 3.0 | 0.05 | 0.03 | 0.03 | 92 | 1008.5 |
| 20260506171350 | 59 | 213 | 2.0 | 2.0 | 0.00 | 0.02 | 0.02 | 92 | 1008.6 |
| 20260506170848 | 60 | 228 | 3.0 | 8.0 | 0.07 | 0.02 | 0.02 | 91 | 1008.7 |
| 20260506170344 | 60 | 223 | 2.0 | 2.0 | 0.07 | 0.02 | 0.02 | 90 | 1008.7 |
| 20260506165844 | 60 | 210 | 4.0 | 6.0 | 0.12 | 0.02 | 0.02 | 89 | 1008.8 |
| 20260506165341 | 61 | 210 | 3.0 | 5.0 | 0.05 | 0.01 | 0.01 | 87 | 1008.8 |
| 20260506164837 | 62 | 241 | 3.0 | 3.0 | 0.00 | 0.00 | 0.00 | 84 | 1009.0 |
| 20260506164334 | 62 | 217 | 2.0 | 2.0 | 0.00 | 0.00 | 0.00 | 83 | 1009.0 |
| 20260506163832 | 63 | 143 | 1.0 | 1.0 | 0.00 | 0.00 | 0.00 | 80 | 1008.9 |
| 20260506163326 | 63 | 230 | 3.0 | 5.0 | 0.00 | 0.00 | 0.00 | 78 | 1008.7 |
| 20260506162821 | 64 | 211 | 3.0 | 5.0 | 0.00 | 0.00 | 0.00 | 77 | 1008.6 |
| 20260506162319 | 64 | 261 | 2.0 | 3.0 | 0.00 | 0.00 | 0.00 | 77 | 1008.8 |
| 20260506161817 | 65 | 219 | 4.0 | 7.0 | 0.00 | 0.00 | 0.00 | 76 | 1008.7 |
| 20260506161314 | 64 | 259 | 3.0 | 3.0 | 0.00 | 0.00 | 0.00 | 76 | 1008.8 |
| 20260506160812 | 64 | 223 | 3.0 | 5.0 | 0.00 | 0.00 | 0.00 | 76 | 1008.9 |
| 20260506160308 | 65 | 222 | 1.0 | 2.0 | 0.00 | 0.00 | 0.00 | 75 | 1009.0 |
| 20260506155807 | 65 | 200 | 5.0 | 7.0 | 0.00 | 0.00 | 0.00 | 76 | 1009.3 |
| 20260506155306 | 64 | 132 | 3.0 | 3.0 | 0.00 | 0.00 | 0.00 | 76 | 1009.0 |
| 20260506153415 | 64 | 232 | 2.0 | 2.0 | 0.00 | 0.00 | 0.00 | 76 | 1009.2 |
| 20260506152913 | 65 | 221 | 0.0 | 0.0 | 0.00 | 0.00 | 0.00 | 75 | 1009.2 |
| 20260506152410 | 65 | 221 | 2.0 | 3.0 | 0.00 | 0.00 | 0.00 | 75 | 1009.1 |
| 20260506151908 | 65 | 222 | 1.0 | 1.0 | 0.00 | 0.00 | 0.00 | 75 | 1009.0 |
| 20260506151405 | 65 | 220 | 1.0 | 2.0 | 0.00 | 0.00 | 0.00 | 75 | 1009.0 |
| 20260506150902 | 65 | 183 | 2.0 | 3.0 | 0.00 | 0.00 | 0.00 | 74 | 1009.1 |
| 20260506150358 | 66 | 31 | 4.0 | 6.0 | 0.00 | 0.00 | 0.00 | 73 | 1009.0 |
| 20260506145855 | 66 | 222 | 3.0 | 5.0 | 0.00 | 0.00 | 0.00 | 73 | 1009.0 |
| 20260506145351 | 66 | 327 | 6.0 | 10.0 | 0.00 | 0.00 | 0.00 | 74 | 1009.0 |
| 20260506144849 | 66 | 260 | 3.0 | 3.0 | 0.00 | 0.00 | 0.00 | 73 | 1008.9 |
| 20260506144345 | 66 | 192 | 6.0 | 10.0 | 0.00 | 0.00 | 0.00 | 73 | 1009.0 |
| 20260506143844 | 66 | 271 | 5.0 | 7.0 | 0.00 | 0.00 | 0.00 | 72 | 1009.2 |
| 20260506143341 | 66 | 75 | 3.0 | 3.0 | 0.00 | 0.00 | 0.00 | 73 | 1009.3 |
| 20260506142839 | 67 | 262 | 2.0 | 3.0 | 0.00 | 0.00 | 0.00 | 73 | 1009.4 |
| 20260506142337 | 67 | 210 | 5.0 | 7.0 | 0.00 | 0.00 | 0.00 | 71 | 1009.4 |
| 20260506141835 | 67 | 225 | 3.0 | 5.0 | 0.00 | 0.00 | 0.00 | 72 | 1009.1 |
| 20260506141332 | 66 | 257 | 2.0 | 2.0 | 0.00 | 0.00 | 0.00 | 72 | 1009.3 |
| 20260506140830 | 66 | 217 | 1.0 | 2.0 | 0.00 | 0.00 | 0.00 | 73 | 1009.3 |
| 20260506140327 | 66 | 230 | 4.0 | 6.0 | 0.00 | 0.00 | 0.00 | 73 | 1009.5 |
| 20260506135824 | 66 | 219 | 2.0 | 3.0 | 0.00 | 0.00 | 0.00 | 75 | 1009.6 |
| 20260506135320 | 66 | 203 | 1.0 | 1.0 | 0.00 | 0.00 | 0.00 | 74 | 1009.5 |
| 20260506134817 | 65 | 258 | 4.0 | 6.0 | 0.00 | 0.00 | 0.00 | 75 | 1009.3 |
| 20260506134313 | 64 | 164 | 4.0 | 6.0 | 0.00 | 0.00 | 0.00 | 76 | 1009.2 |
| 20260506133810 | 65 | 79 | 2.0 | 3.0 | 0.00 | 0.00 | 0.00 | 76 | 1009.1 |
| 20260506133307 | 65 | 231 | 3.0 | 3.0 | 0.00 | 0.00 | 0.00 | 76 | 1009.0 |
| 20260506132804 | 64 | 236 | 2.0 | 3.0 | 0.00 | 0.00 | 0.00 | 77 | 1009.4 |
| 20260506132301 | 64 | 292 | 3.0 | 6.0 | 0.00 | 0.00 | 0.00 | 78 | 1009.3 |
| 20260506131759 | 63 | 207 | 4.0 | 6.0 | 0.00 | 0.00 | 0.00 | 79 | 1009.3 |
| 20260506131255 | 63 | 198 | 3.0 | 3.0 | 0.00 | 0.00 | 0.00 | 79 | 1009.4 |
| 20260506130752 | 63 | 207 | 2.0 | 2.0 | 0.00 | 0.00 | 0.00 | 79 | 1009.3 |
| 20260506130249 | 63 | 224 | 2.0 | 2.0 | 0.00 | 0.00 | 0.00 | 79 | 1009.4 |
| 20260506125746 | 62 | 205 | 3.0 | 3.0 | 0.00 | 0.00 | 0.00 | 80 | 1009.2 |
| 20260506125244 | 62 | 254 | 3.0 | 3.0 | 0.00 | 0.00 | 0.00 | 80 | 1009.6 |
| 20260506124743 | 62 | 221 | 5.0 | 7.0 | 0.00 | 0.00 | 0.00 | 80 | 1009.6 |
| 20260506124240 | 62 | 191 | 3.0 | 5.0 | 0.00 | 0.00 | 0.00 | 81 | 1009.8 |
| 20260506123737 | 62 | 181 | 3.0 | 3.0 | 0.00 | 0.00 | 0.00 | 82 | 1009.9 |
| 20260506123236 | 62 | 217 | 4.0 | 7.0 | 0.00 | 0.00 | 0.00 | 82 | 1010.1 |
| 20260506122732 | 61 | 160 | 4.0 | 6.0 | 0.00 | 0.00 | 0.00 | 82 | 1010.1 |
| 20260506122229 | 61 | 270 | 2.0 | 3.0 | 0.00 | 0.00 | 0.00 | 83 | 1009.7 |
| 20260506121728 | 60 | 231 | 1.0 | 1.0 | 0.00 | 0.00 | 0.00 | 84 | 1009.9 |
| 20260506121224 | 60 | 234 | 2.0 | 2.0 | 0.00 | 0.00 | 0.00 | 84 | 1009.8 |
| 20260506120722 | 61 | 157 | 3.0 | 3.0 | 0.00 | 0.00 | 0.00 | 83 | 1009.8 |
| 20260506120219 | 60 | 230 | 4.0 | 6.0 | 0.00 | 0.00 | 0.00 | 84 | 1010.0 |
| 20260506115717 | 60 | 214 | 4.0 | 7.0 | 0.00 | 0.00 | 0.00 | 85 | 1009.9 |
| 20260506115215 | 59 | 247 | 1.0 | 1.0 | 0.00 | 0.00 | 0.00 | 87 | 1009.9 |
| 20260506114712 | 59 | 197 | 2.0 | 3.0 | 0.00 | 0.00 | 0.00 | 87 | 1009.7 |
| 20260506114210 | 59 | 219 | 3.0 | 3.0 | 0.00 | 0.00 | 0.00 | 86 | 1009.8 |
| 20260506113708 | 59 | 222 | 2.0 | 3.0 | 0.00 | 0.00 | 0.00 | 86 | 1009.7 |
| 20260506113205 | 59 | 220 | 2.0 | 3.0 | 0.00 | 0.00 | 0.00 | 87 | 1009.7 |
| 20260506112701 | 58 | 246 | 2.0 | 3.0 | 0.00 | 0.00 | 0.00 | 88 | 1009.7 |
| 20260506112159 | 59 | 215 | 1.0 | 2.0 | 0.00 | 0.00 | 0.00 | 87 | 1009.7 |
| 20260506111656 | 59 | 188 | 1.0 | 2.0 | 0.00 | 0.00 | 0.00 | 87 | 1009.9 |
| 20260506111154 | 59 | 234 | 3.0 | 3.0 | 0.00 | 0.00 | 0.00 | 87 | 1010.2 |
| 20260506110651 | 59 | 226 | 1.0 | 1.0 | 0.00 | 0.00 | 0.00 | 87 | 1010.1 |
| 20260506110149 | 58 | 125 | 2.0 | 3.0 | 0.00 | 0.00 | 0.00 | 88 | 1010.0 |
| 20260506105645 | 58 | 202 | 1.0 | 2.0 | 0.00 | 0.00 | 0.00 | 88 | 1009.9 |
| 20260506105142 | 58 | 215 | 4.0 | 5.0 | 0.00 | 0.00 | 0.00 | 88 | 1010.1 |
| 20260506104640 | 58 | 220 | 4.0 | 5.0 | 0.00 | 0.00 | 0.00 | 88 | 1009.8 |
| 20260506104137 | 58 | 223 | 1.0 | 1.0 | 0.00 | 0.00 | 0.00 | 88 | 1009.9 |
| 20260506103635 | 58 | 186 | 2.0 | 3.0 | 0.00 | 0.00 | 0.00 | 88 | 1009.9 |
| 20260506103131 | 57 | 266 | 3.0 | 3.0 | 0.00 | 0.00 | 0.00 | 89 | 1009.9 |
| 20260506102630 | 57 | 227 | 2.0 | 3.0 | 0.00 | 0.00 | 0.00 | 89 | 1009.7 |
| 20260506102126 | 57 | 199 | 4.0 | 5.0 | 0.00 | 0.00 | 0.00 | 90 | 1009.7 |
| 20260506101623 | 56 | 221 | 1.0 | 2.0 | 0.00 | 0.00 | 0.00 | 90 | 1009.8 |
| 20260506101120 | 57 | 140 | 3.0 | 5.0 | 0.00 | 0.00 | 0.00 | 90 | 1009.9 |
| 20260506100619 | 57 | 219 | 3.0 | 3.0 | 0.00 | 0.00 | 0.00 | 90 | 1009.7 |
| 20260506100116 | 57 | 209 | 4.0 | 6.0 | 0.00 | 0.00 | 0.00 | 90 | 1009.7 |
| 20260506095615 | 57 | 230 | 3.0 | 3.0 | 0.00 | 0.00 | 0.00 | 90 | 1009.5 |
| 20260506095111 | 57 | 209 | 2.0 | 2.0 | 0.00 | 0.00 | 0.00 | 89 | 1009.7 |
| 20260506094608 | 57 | 221 | 3.0 | 3.0 | 0.00 | 0.00 | 0.00 | 89 | 1009.9 |
| 20260506094106 | 57 | 229 | 2.0 | 2.0 | 0.00 | 0.00 | 0.00 | 89 | 1009.7 |
| 20260506093604 | 57 | 220 | 1.0 | 2.0 | 0.00 | 0.00 | 0.00 | 89 | 1009.5 |
| 20260506093101 | 57 | 150 | 5.0 | 10.0 | 0.00 | 0.00 | 0.00 | 89 | 1009.6 |
| 20260506092559 | 57 | 226 | 3.0 | 3.0 | 0.00 | 0.00 | 0.00 | 89 | 1009.6 |
| 20260506092056 | 57 | 257 | 2.0 | 2.0 | 0.00 | 0.00 | 0.00 | 88 | 1009.8 |
| 20260506091554 | 57 | 226 | 2.0 | 2.0 | 0.00 | 0.00 | 0.00 | 88 | 1009.9 |
| 20260506091051 | 57 | 126 | 3.0 | 3.0 | 0.00 | 0.00 | 0.00 | 88 | 1009.7 |
| 20260506090549 | 57 | 259 | 2.0 | 3.0 | 0.00 | 0.00 | 0.00 | 88 | 1009.5 |
| 20260506090045 | 57 | 242 | 2.0 | 2.0 | 0.00 | 0.00 | 0.00 | 88 | 1009.9 |
| 20260506085542 | 57 | 248 | 3.0 | 3.0 | 0.00 | 0.00 | 0.00 | 88 | 1009.7 |
| 20260506085038 | 57 | 214 | 2.0 | 2.0 | 0.00 | 0.00 | 0.00 | 87 | 1009.6 |
| 20260506084535 | 57 | 223 | 5.0 | 7.0 | 0.00 | 0.00 | 0.00 | 87 | 1009.9 |
| 20260506084031 | 57 | 157 | 3.0 | 5.0 | 0.00 | 0.00 | 0.00 | 87 | 1009.8 |
| 20260506083529 | 57 | 213 | 3.0 | 3.0 | 0.00 | 0.00 | 0.00 | 87 | 1009.8 |
| 20260506083026 | 58 | 239 | 4.0 | 5.0 | 0.00 | 0.00 | 0.00 | 87 | 1009.7 |
| 20260506082523 | 58 | 210 | 4.0 | 6.0 | 0.00 | 0.00 | 0.00 | 87 | 1009.8 |
| 20260506082018 | 58 | 228 | 2.0 | 3.0 | 0.00 | 0.00 | 0.00 | 86 | 1009.6 |
| 20260506081517 | 58 | 124 | 4.0 | 8.0 | 0.00 | 0.00 | 0.00 | 86 | 1009.5 |
| 20260506081014 | 58 | 221 | 3.0 | 6.0 | 0.00 | 0.00 | 0.00 | 86 | 1009.6 |
| 20260506080511 | 58 | 244 | 3.0 | 3.0 | 0.00 | 0.00 | 0.00 | 86 | 1009.7 |
| 20260506073455 | 58 | 233 | 3.0 | 5.0 | 0.00 | 0.00 | 0.00 | 85 | 1009.7 |
| 20260506072952 | 58 | 149 | 3.0 | 3.0 | 0.00 | 0.00 | 0.00 | 85 | 1009.7 |
| 20260506072449 | 58 | 198 | 3.0 | 3.0 | 0.00 | 0.00 | 0.00 | 85 | 1009.7 |
| 20260506071947 | 58 | 240 | 4.0 | 5.0 | 0.00 | 0.00 | 0.00 | 84 | 1009.8 |
| 20260506071445 | 59 | 227 | 1.0 | 1.0 | 0.00 | 0.00 | 0.00 | 84 | 1009.7 |
| 20260506070941 | 59 | 273 | 6.0 | 8.0 | 0.00 | 0.00 | 0.00 | 84 | 1009.6 |
| 20260506070438 | 59 | 211 | 5.0 | 6.0 | 0.00 | 0.00 | 0.00 | 84 | 1009.8 |
| 20260506062416 | 59 | 228 | 5.0 | 6.0 | 0.00 | 0.00 | 0.00 | 82 | 1009.6 |
| 20260506061912 | 59 | 52 | 5.0 | 8.0 | 0.00 | 0.00 | 0.00 | 82 | 1009.7 |
| 20260506061408 | 59 | 235 | 3.0 | 3.0 | 0.00 | 0.00 | 0.00 | 82 | 1009.9 |
| 20260506060906 | 59 | 229 | 3.0 | 5.0 | 0.00 | 0.00 | 0.00 | 81 | 1009.5 |
| 20260506060404 | 60 | 231 | 4.0 | 6.0 | 0.00 | 0.00 | 0.00 | 81 | 1009.7 |
| 20260506051336 | 60 | 223 | 3.0 | 5.0 | 0.00 | 0.00 | 0.00 | 79 | 1010.0 |
| 20260506050833 | 61 | 227 | 4.0 | 8.0 | 0.00 | 0.00 | 0.00 | 79 | 1010.1 |
| 20260506050331 | 61 | 258 | 3.0 | 3.0 | 0.00 | 0.00 | 0.00 | 79 | 1010.0 |
| 20260506044821 | 61 | 247 | 3.0 | 5.0 | 0.00 | 0.00 | 0.00 | 78 | 1010.0 |
| 20260506044319 | 61 | 262 | 3.0 | 5.0 | 0.00 | 0.00 | 0.00 | 78 | 1010.2 |
| 20260506043816 | 61 | 263 | 2.0 | 3.0 | 0.00 | 0.00 | 0.00 | 78 | 1010.1 |
| 20260506043313 | 61 | 273 | 3.0 | 5.0 | 0.00 | 0.00 | 0.00 | 77 | 1010.2 |
| 20260506042812 | 61 | 206 | 4.0 | 5.0 | 0.00 | 0.00 | 0.00 | 77 | 1010.3 |
| 20260506042310 | 62 | 222 | 3.0 | 6.0 | 0.00 | 0.00 | 0.00 | 76 | 1010.0 |
| 20260506041809 | 62 | 237 | 3.0 | 3.0 | 0.00 | 0.00 | 0.00 | 77 | 1010.2 |
| 20260506041305 | 62 | 168 | 4.0 | 7.0 | 0.00 | 0.00 | 0.00 | 76 | 1010.3 |
| 20260506040802 | 62 | 230 | 4.0 | 6.0 | 0.00 | 0.00 | 0.00 | 76 | 1010.3 |
| 20260506040259 | 62 | 251 | 3.0 | 5.0 | 0.00 | 0.00 | 0.00 | 75 | 1010.0 |
| 20260506035756 | 62 | 146 | 3.0 | 5.0 | 0.00 | 0.00 | 0.00 | 75 | 1010.1 |
| 20260506035253 | 62 | 225 | 4.0 | 5.0 | 0.00 | 0.00 | 0.00 | 75 | 1010.1 |
| 20260506034750 | 62 | 257 | 3.0 | 5.0 | 0.00 | 0.00 | 0.00 | 74 | 1010.2 |
| 20260506034248 | 62 | 218 | 4.0 | 6.0 | 0.00 | 0.00 | 0.00 | 74 | 1010.1 |
| 20260506033744 | 62 | 221 | 2.0 | 2.0 | 0.00 | 0.00 | 0.00 | 73 | 1010.1 |
| 20260506033241 | 62 | 237 | 3.0 | 5.0 | 0.00 | 0.00 | 0.00 | 72 | 1010.3 |
| 20260506032738 | 63 | 185 | 4.0 | 6.0 | 0.00 | 0.00 | 0.00 | 72 | 1010.1 |
| 20260506032235 | 62 | 224 | 2.0 | 2.0 | 0.00 | 0.00 | 0.00 | 71 | 1010.0 |
| 20260506031732 | 62 | 224 | 5.0 | 6.0 | 0.00 | 0.00 | 0.00 | 71 | 1009.9 |
| 20260506031229 | 63 | 242 | 3.0 | 3.0 | 0.00 | 0.00 | 0.00 | 71 | 1010.0 |
| 20260506030728 | 63 | 88 | 3.0 | 5.0 | 0.00 | 0.00 | 0.00 | 70 | 1010.1 |
| 20260506030225 | 63 | 243 | 4.0 | 6.0 | 0.00 | 0.00 | 0.00 | 70 | 1009.9 |
| 20260506025721 | 63 | 218 | 4.0 | 7.0 | 0.00 | 0.00 | 0.00 | 70 | 1010.0 |
| 20260506025218 | 63 | 270 | 4.0 | 6.0 | 0.00 | 0.00 | 0.00 | 69 | 1010.1 |
| 20260506024715 | 63 | 221 | 2.0 | 3.0 | 0.00 | 0.00 | 0.00 | 69 | 1009.9 |
| 20260506024211 | 63 | 277 | 2.0 | 5.0 | 0.00 | 0.00 | 0.00 | 69 | 1009.8 |
| 20260506023708 | 63 | 199 | 5.0 | 8.0 | 0.00 | 0.00 | 0.00 | 69 | 1009.9 |
| 20260506023205 | 63 | 232 | 3.0 | 5.0 | 0.00 | 0.00 | 0.00 | 69 | 1009.7 |
| 20260506022702 | 63 | 241 | 5.0 | 7.0 | 0.00 | 0.00 | 0.00 | 69 | 1009.7 |
| 20260506022159 | 63 | 209 | 5.0 | 6.0 | 0.00 | 0.00 | 0.00 | 69 | 1009.9 |
| 20260506021657 | 63 | 243 | 4.0 | 6.0 | 0.00 | 0.00 | 0.00 | 69 | 1009.6 |
| 20260506021154 | 63 | 227 | 3.0 | 3.0 | 0.00 | 0.00 | 0.00 | 69 | 1009.9 |
| 20260506020651 | 63 | 331 | 5.0 | 8.0 | 0.00 | 0.00 | 0.00 | 70 | 1009.8 |
| 20260506020149 | 63 | 191 | 4.0 | 7.0 | 0.00 | 0.00 | 0.00 | 69 | 1009.8 |
| 20260506015646 | 63 | 244 | 3.0 | 5.0 | 0.00 | 0.00 | 0.00 | 69 | 1009.8 |
| 20260506015143 | 63 | 235 | 5.0 | 7.0 | 0.00 | 0.00 | 0.00 | 69 | 1009.9 |
| 20260506014635 | 63 | 113 | 4.0 | 7.0 | 0.00 | 0.00 | 0.00 | 68 | 1009.7 |
| 20260506014131 | 63 | 197 | 4.0 | 6.0 | 0.00 | 0.00 | 0.00 | 68 | 1009.5 |
| 20260506013629 | 63 | 262 | 4.0 | 6.0 | 0.00 | 0.00 | 0.00 | 68 | 1009.7 |
| 20260506013126 | 63 | 182 | 4.0 | 6.0 | 0.00 | 0.00 | 0.00 | 68 | 1009.4 |
| 20260506012621 | 63 | 223 | 5.0 | 7.0 | 0.00 | 0.00 | 0.00 | 68 | 1009.5 |
| 20260506012118 | 63 | 271 | 5.0 | 7.0 | 0.00 | 0.00 | 0.00 | 67 | 1009.6 |
| 20260506011616 | 63 | 204 | 4.0 | 5.0 | 0.00 | 0.00 | 0.00 | 67 | 1009.5 |
| 20260506011111 | 63 | 235 | 5.0 | 10.0 | 0.00 | 0.00 | 0.00 | 67 | 1009.5 |
| 20260506010605 | 64 | 207 | 5.0 | 7.0 | 0.00 | 0.00 | 0.00 | 66 | 1009.3 |
| 20260506005559 | 64 | 239 | 4.0 | 6.0 | 0.00 | 0.00 | 0.00 | 66 | 1009.3 |
| 20260506005055 | 64 | 201 | 2.0 | 3.0 | 0.00 | 0.00 | 0.00 | 66 | 1009.2 |
| 20260506004547 | 64 | 130 | 4.0 | 7.0 | 0.00 | 0.00 | 0.00 | 65 | 1009.2 |
| 20260506004043 | 64 | 217 | 4.0 | 6.0 | 0.00 | 0.00 | 0.00 | 64 | 1009.0 |
| 20260506003540 | 64 | 232 | 3.0 | 6.0 | 0.00 | 0.00 | 0.00 | 65 | 1009.0 |
| 20260506003036 | 64 | 220 | 5.0 | 7.0 | 0.00 | 0.00 | 0.00 | 64 | 1008.8 |
| 20260506002532 | 64 | 230 | 3.0 | 5.0 | 0.00 | 0.00 | 0.00 | 64 | 1008.8 |
| 20260506002028 | 64 | 262 | 6.0 | 8.0 | 0.00 | 0.00 | 0.00 | 64 | 1008.6 |
| 20260506001524 | 64 | 194 | 7.0 | 10.0 | 0.00 | 0.00 | 0.00 | 63 | 1008.5 |
| 20260506001021 | 65 | 226 | 2.0 | 3.0 | 0.00 | 0.00 | 0.00 | 63 | 1008.7 |
| 20260506000519 | 65 | 195 | 4.0 | 5.0 | 0.00 | 0.00 | 0.00 | 64 | 1008.6 |
| 20260506000017 | 65 | 190 | 2.0 | 3.0 | 0.00 | 0.00 | 0.00 | 63 | 1008.3 |
| 20260505235514 | 65 | 227 | 6.0 | 9.0 | 0.00 | 0.00 | 0.00 | 63 | 1008.2 |
| 20260505235010 | 65 | 111 | 8.0 | 10.0 | 0.00 | 0.00 | 0.00 | 63 | 1008.2 |
| 20260505234508 | 65 | 228 | 3.0 | 5.0 | 0.00 | 0.00 | 0.00 | 64 | 1008.1 |
| 20260505234004 | 66 | 211 | 3.0 | 6.0 | 0.00 | 0.00 | 0.00 | 63 | 1008.2 |
| 20260505233502 | 66 | 222 | 4.0 | 7.0 | 0.00 | 0.00 | 0.00 | 63 | 1008.1 |
| 20260505232959 | 66 | 253 | 3.0 | 3.0 | 0.00 | 0.00 | 0.00 | 62 | 1008.0 |
| 20260505232457 | 66 | 226 | 3.0 | 6.0 | 0.00 | 0.00 | 0.00 | 62 | 1007.9 |
| 20260505231954 | 67 | 220 | 3.0 | 7.0 | 0.00 | 0.00 | 0.00 | 62 | 1008.0 |
| 20260505231451 | 67 | 180 | 4.0 | 6.0 | 0.00 | 0.00 | 0.00 | 61 | 1007.9 |
| 20260505230949 | 67 | 174 | 3.0 | 3.0 | 0.00 | 0.00 | 0.00 | 62 | 1008.0 |
| 20260505230447 | 67 | 213 | 5.0 | 8.0 | 0.00 | 0.00 | 0.00 | 61 | 1007.8 |
| 20260505225943 | 68 | 217 | 4.0 | 5.0 | 0.00 | 0.00 | 0.00 | 61 | 1007.8 |
| 20260505225440 | 68 | 252 | 3.0 | 3.0 | 0.00 | 0.00 | 0.00 | 60 | 1007.7 |
| 20260505224936 | 68 | 190 | 6.0 | 7.0 | 0.00 | 0.00 | 0.00 | 60 | 1007.6 |
| 20260505224434 | 68 | 207 | 3.0 | 6.0 | 0.00 | 0.00 | 0.00 | 60 | 1007.5 |
| 20260505223931 | 68 | 222 | 1.0 | 2.0 | 0.00 | 0.00 | 0.00 | 61 | 1007.4 |
| 20260505223428 | 69 | 194 | 4.0 | 5.0 | 0.00 | 0.00 | 0.00 | 60 | 1007.8 |
| 20260505222924 | 69 | 185 | 3.0 | 6.0 | 0.00 | 0.00 | 0.00 | 59 | 1007.8 |
| 20260505222421 | 69 | 208 | 2.0 | 3.0 | 0.00 | 0.00 | 0.00 | 59 | 1007.8 |
| 20260505221916 | 69 | 91 | 3.0 | 5.0 | 0.00 | 0.00 | 0.00 | 58 | 1007.9 |
| 20260505221414 | 70 | 206 | 4.0 | 7.0 | 0.00 | 0.00 | 0.00 | 58 | 1007.9 |
| 20260505220911 | 70 | 231 | 1.0 | 2.0 | 0.00 | 0.00 | 0.00 | 59 | 1007.8 |
| 20260505220408 | 70 | 278 | 7.0 | 10.0 | 0.00 | 0.00 | 0.00 | 58 | 1007.8 |
| 20260505215905 | 70 | 277 | 3.0 | 5.0 | 0.00 | 0.00 | 0.00 | 58 | 1007.9 |
| 20260505215403 | 71 | 101 | 3.0 | 6.0 | 0.00 | 0.00 | 0.00 | 57 | 1007.8 |
| 20260505214901 | 70 | 342 | 5.0 | 6.0 | 0.00 | 0.00 | 0.00 | 57 | 1007.8 |
| 20260505214358 | 71 | 251 | 3.0 | 6.0 | 0.00 | 0.00 | 0.00 | 58 | 1007.5 |
| 20260505213855 | 71 | 231 | 3.0 | 6.0 | 0.00 | 0.00 | 0.00 | 56 | 1007.4 |
| 20260505213353 | 71 | 223 | 3.0 | 5.0 | 0.00 | 0.00 | 0.00 | 57 | 1007.6 |
| 20260505212849 | 71 | 179 | 2.0 | 3.0 | 0.00 | 0.00 | 0.00 | 57 | 1007.6 |
| 20260505212346 | 71 | 12 | 2.0 | 3.0 | 0.00 | 0.00 | 0.00 | 56 | 1007.4 |
| 20260505211842 | 70 | 240 | 5.0 | 6.0 | 0.00 | 0.00 | 0.00 | 56 | 1007.5 |
| 20260505211340 | 71 | 207 | 2.0 | 6.0 | 0.00 | 0.00 | 0.00 | 57 | 1007.5 |
| 20260505210836 | 71 | 235 | 3.0 | 6.0 | 0.00 | 0.00 | 0.00 | 56 | 1007.4 |
| 20260505210333 | 72 | 189 | 2.0 | 2.0 | 0.00 | 0.00 | 0.00 | 55 | 1007.4 |
| 20260505205830 | 72 | 286 | 5.0 | 8.0 | 0.00 | 0.00 | 0.00 | 55 | 1007.7 |
| 20260505205328 | 73 | 201 | 3.0 | 5.0 | 0.00 | 0.00 | 0.00 | 54 | 1007.5 |
| 20260505204824 | 73 | 228 | 2.0 | 2.0 | 0.00 | 0.00 | 0.00 | 54 | 1007.4 |
| 20260505204323 | 73 | 178 | 6.0 | 7.0 | 0.00 | 0.00 | 0.00 | 54 | 1007.4 |
| 20260505203820 | 74 | 168 | 9.0 | 11.0 | 0.00 | 0.00 | 0.00 | 52 | 1007.5 |
| 20260505203316 | 75 | 346 | 4.0 | 5.0 | 0.00 | 0.00 | 0.00 | 53 | 1007.5 |
| 20260505202813 | 74 | 132 | 4.0 | 5.0 | 0.00 | 0.00 | 0.00 | 54 | 1007.3 |
| 20260505202309 | 75 | 206 | 2.0 | 2.0 | 0.00 | 0.00 | 0.00 | 51 | 1007.5 |
| 20260505201806 | 75 | 203 | 4.0 | 6.0 | 0.00 | 0.00 | 0.00 | 51 | 1007.4 |
| 20260505201303 | 74 | 250 | 3.0 | 5.0 | 0.00 | 0.00 | 0.00 | 52 | 1007.6 |
| 20260505200801 | 74 | 212 | 3.0 | 5.0 | 0.00 | 0.00 | 0.00 | 52 | 1007.6 |
| 20260505200258 | 74 | 211 | 4.0 | 6.0 | 0.00 | 0.00 | 0.00 | 53 | 1007.7 |
| 20260505195753 | 75 | 151 | 4.0 | 6.0 | 0.00 | 0.00 | 0.00 | 52 | 1008.1 |
| 20260505195251 | 75 | 234 | 3.0 | 5.0 | 0.00 | 0.00 | 0.00 | 52 | 1007.8 |
| 20260505194748 | 77 | 129 | 4.0 | 6.0 | 0.00 | 0.00 | 0.00 | 50 | 1007.6 |
| 20260505194245 | 76 | 142 | 1.0 | 2.0 | 0.00 | 0.00 | 0.00 | 53 | 1007.7 |
| 20260505193740 | 76 | 193 | 9.0 | 13.0 | 0.00 | 0.00 | 0.00 | 51 | 1008.1 |
| 20260505193238 | 76 | 167 | 9.0 | 16.0 | 0.00 | 0.00 | 0.00 | 50 | 1007.6 |
| 20260505192736 | 75 | 226 | 4.0 | 7.0 | 0.00 | 0.00 | 0.00 | 52 | 1007.8 |
| 20260505192234 | 75 | 223 | 3.0 | 8.0 | 0.00 | 0.00 | 0.00 | 52 | 1007.9 |
| 20260505191732 | 77 | 184 | 7.0 | 14.0 | 0.00 | 0.00 | 0.00 | 52 | 1008.0 |
| 20260505191230 | 75 | 221 | 3.0 | 3.0 | 0.00 | 0.00 | 0.00 | 52 | 1008.0 |
| 20260505190726 | 75 | 185 | 7.0 | 10.0 | 0.00 | 0.00 | 0.00 | 51 | 1008.3 |
| 20260505190225 | 77 | 256 | 4.0 | 8.0 | 0.00 | 0.00 | 0.00 | 50 | 1008.2 |
| 20260505185722 | 75 | 175 | 3.0 | 6.0 | 0.00 | 0.00 | 0.00 | 51 | 1008.0 |